When you browse on this site, cookies collect data to enhance your experience and personalize the content and advertising you see.
Visit our Privacy Policy to learn more. By continuing to use the site, you agree to this use of cookies and data.
  • In Czech Republic
  • List of Countries
  • For 7 days
  • Water Temperature
  • Weather Map
  • Weather Widgets
  • user-avatar
    Login

    Hourly Weather Sumgayit

    Today, 4 April, Saturday

    Time Temperature Precipitation Wind Pressure Humidity
    00:00 +9°C° 0 mm 2 mps 741 mmHg 82%
    01:00 +9°C° 0 mm 2 mps 741 mmHg 83%
    02:00 +9°C° 0 mm 2 mps 741 mmHg 83%
    03:00 +9°C° 0 mm 2 mps 741 mmHg 88%
    04:00 +9°C° 0 mm 2 mps 741 mmHg 88%
    05:00 +9°C° 0 mm 2 mps 741 mmHg 89%
    06:00 +9°C° 0 mm 2 mps 741 mmHg 89%
    07:00 +9°C° 0.1 mm 3 mps 742 mmHg 89%
    08:00 +9°C° 0.1 mm 3 mps 742 mmHg 88%
    09:00 +8°C° 0 mm 4 mps 742 mmHg 89%
    10:00 +8°C° 0.1 mm 4 mps 743 mmHg 88%
    11:00 +8°C° 0.1 mm 4 mps 743 mmHg 87%
    12:00 +8°C° 0.1 mm 5 mps 743 mmHg 86%
    13:00 +8°C° 0.1 mm 5 mps 743 mmHg 85%
    14:00 +8°C° 0.1 mm 6 mps 743 mmHg 84%
    15:00 +8°C° 0 mm 5 mps 743 mmHg 82%
    16:00 +8°C° 0.1 mm 5 mps 744 mmHg 83%
    17:00 +7°C° 0.1 mm 5 mps 744 mmHg 84%
    18:00 +7°C° 0.1 mm 5 mps 745 mmHg 84%
    19:00 +7°C° 0.1 mm 4 mps 745 mmHg 85%
    20:00 +7°C° 0.1 mm 4 mps 745 mmHg 85%
    21:00 +8°C° 0.1 mm 3 mps 746 mmHg 86%
    22:00 +8°C° 0.1 mm 2 mps 746 mmHg 86%
    23:00 +8°C° 0.1 mm 2 mps 746 mmHg 87%

    Tomorrow, 5 April, Sunday

    Time Temperature Precipitation Wind Pressure Humidity
    00:00 +8°C° 0.1 mm 2 mps 746 mmHg 88%
    01:00 +8°C° 0 mm 2 mps 746 mmHg 89%
    02:00 +9°C° 0 mm 1 mps 746 mmHg 89%
    03:00 +9°C° 0 mm 1 mps 745 mmHg 90%
    04:00 +9°C° 0 mm 1 mps 746 mmHg 90%
    05:00 +9°C° 0 mm 1 mps 746 mmHg 90%
    06:00 +9°C° 0 mm 1 mps 746 mmHg 90%
    07:00 +10°C° 0 mm 1 mps 746 mmHg 83%
    08:00 +11°C° 0 mm 1 mps 746 mmHg 76%
    09:00 +13°C° 0 mm 1 mps 746 mmHg 68%
    10:00 +14°C° 0 mm 2 mps 746 mmHg 62%
    11:00 +15°C° 0 mm 2 mps 746 mmHg 56%
    12:00 +17°C° 0 mm 3 mps 745 mmHg 50%
    13:00 +17°C° 0 mm 3 mps 745 mmHg 50%
    14:00 +17°C° 0 mm 4 mps 744 mmHg 50%
    15:00 +18°C° 0 mm 4 mps 744 mmHg 50%
    16:00 +15°C° 0 mm 4 mps 743 mmHg 56%
    17:00 +14°C° 0 mm 4 mps 743 mmHg 63%
    18:00 +13°C° 0 mm 4 mps 743 mmHg 70%
    19:00 +12°C° 0 mm 4 mps 743 mmHg 72%
    20:00 +12°C° 0 mm 4 mps 743 mmHg 74%
    21:00 +11°C° 0 mm 4 mps 743 mmHg 76%
    22:00 +11°C° 0 mm 3 mps 743 mmHg 76%
    23:00 +11°C° 0 mm 3 mps 742 mmHg 76%

    Day after tomorrow, 6 April, Monday

    Time Temperature Precipitation Wind Pressure Humidity
    00:00 +12°C° 0 mm 2 mps 742 mmHg 76%
    01:00 +10°C° 0 mm 2 mps 742 mmHg 77%
    02:00 +11°C° 0 mm 1 mps 741 mmHg 78%
    03:00 +11°C° 0 mm 1 mps 741 mmHg 80%
    04:00 +10°C° 0 mm 1 mps 741 mmHg 80%
    05:00 +10°C° 0 mm 1 mps 741 mmHg 80%
    06:00 +10°C° 0 mm 1 mps 742 mmHg 80%
    07:00 +12°C° 0 mm 2 mps 742 mmHg 73%
    08:00 +12°C° 0 mm 3 mps 743 mmHg 66%
    09:00 +13°C° 0 mm 4 mps 743 mmHg 59%
    10:00 +12°C° 0 mm 8 mps 744 mmHg 59%
    11:00 +12°C° 0 mm 11 mps 744 mmHg 60%
    12:00 +12°C° 0 mm 14 mps 745 mmHg 61%
    13:00 +10°C° 0 mm 14 mps 745 mmHg 61%
    14:00 +9°C° 0 mm 14 mps 745 mmHg 61%
    15:00 +9°C° 0 mm 14 mps 745 mmHg 61%
    16:00 +8°C° 0 mm 13 mps 746 mmHg 59%
    17:00 +8°C° 0 mm 13 mps 746 mmHg 57%
    18:00 +7°C° 0 mm 12 mps 747 mmHg 55%
    19:00 +7°C° 0 mm 12 mps 748 mmHg 54%
    20:00 +7°C° 0 mm 12 mps 748 mmHg 53%
    21:00 +7°C° 0 mm 12 mps 749 mmHg 53%
    22:00 +6°C° 0.1 mm 11 mps 749 mmHg 53%
    23:00 +6°C° 0.1 mm 11 mps 749 mmHg 54%

    7 April, Tuesday

    Time Temperature Precipitation Wind Pressure Humidity
    00:00 +5°C° 0.1 mm 10 mps 749 mmHg 55%
    01:00 +5°C° 0 mm 10 mps 749 mmHg 55%
    02:00 +3°C° 0 mm 10 mps 749 mmHg 56%
    03:00 +3°C° 0 mm 10 mps 749 mmHg 56%
    04:00 +2°C° 0.1 mm 10 mps 749 mmHg 61%
    05:00 +2°C° 0.1 mm 9 mps 749 mmHg 65%
    06:00 +1°C° 0.1 mm 9 mps 750 mmHg 70%
    07:00 +1°C° 0.4 mm 8 mps 750 mmHg 73%
    08:00 +1°C° 0.4 mm 8 mps 750 mmHg 76%
    09:00 +1°C° 0.4 mm 8 mps 750 mmHg 79%
    10:00 +1°C° 0.4 mm 8 mps 750 mmHg 77%
    11:00 +1°C° 0.4 mm 8 mps 750 mmHg 74%
    12:00 +2°C° 0.4 mm 9 mps 750 mmHg 72%
    13:00 +2°C° 0.3 mm 8 mps 749 mmHg 69%
    14:00 +2°C° 0.3 mm 8 mps 749 mmHg 65%
    15:00 +2°C° 0.3 mm 8 mps 749 mmHg 62%
    16:00 +2°C° 0 mm 8 mps 749 mmHg 60%
    17:00 +2°C° 0 mm 8 mps 749 mmHg 58%
    18:00 +2°C° 0 mm 8 mps 749 mmHg 56%
    19:00 +2°C° 0 mm 8 mps 750 mmHg 56%
    20:00 +2°C° 0 mm 9 mps 750 mmHg 57%
    21:00 +2°C° 0 mm 9 mps 751 mmHg 58%
    22:00 +1°C° 0 mm 9 mps 751 mmHg 60%
    23:00 +1°C° 0 mm 9 mps 751 mmHg 63%

    8 April, Wednesday

    Time Temperature Precipitation Wind Pressure Humidity
    00:00 +1°C° 0 mm 9 mps 752 mmHg 65%
    01:00 0°C° 0 mm 8 mps 752 mmHg 67%
    02:00 0°C° 0 mm 7 mps 752 mmHg 69%
    03:00 +1°C° 0 mm 6 mps 752 mmHg 71%
    04:00 +1°C° 0 mm 5 mps 752 mmHg 70%
    05:00 +2°C° 0 mm 3 mps 752 mmHg 68%
    06:00 +3°C° 0 mm 2 mps 752 mmHg 67%
    07:00 +4°C° 0 mm 2 mps 752 mmHg 62%
    08:00 +4°C° 0 mm 2 mps 752 mmHg 58%
    09:00 +6°C° 0 mm 1 mps 752 mmHg 53%
    10:00 +6°C° 0 mm 2 mps 752 mmHg 54%
    11:00 +7°C° 0 mm 3 mps 751 mmHg 54%
    12:00 +7°C° 0 mm 3 mps 751 mmHg 55%
    13:00 +7°C° 0 mm 4 mps 750 mmHg 54%
    14:00 +7°C° 0 mm 5 mps 750 mmHg 53%
    15:00 +7°C° 0 mm 5 mps 749 mmHg 52%
    16:00 +7°C° 0 mm 5 mps 749 mmHg 53%
    17:00 +6°C° 0 mm 5 mps 749 mmHg 55%
    18:00 +6°C° 0 mm 5 mps 748 mmHg 57%
    19:00 +5°C° 0 mm 5 mps 748 mmHg 59%
    20:00 +5°C° 0 mm 5 mps 748 mmHg 60%
    21:00 +3°C° 0 mm 5 mps 748 mmHg 62%
    22:00 +4°C° 0 mm 4 mps 748 mmHg 63%
    23:00 +4°C° 0 mm 4 mps 747 mmHg 64%

    9 April, Thursday

    Time Temperature Precipitation Wind Pressure Humidity
    00:00 +4°C° 0 mm 4 mps 747 mmHg 65%
    01:00 +4°C° 0 mm 4 mps 746 mmHg 67%
    02:00 +4°C° 0 mm 3 mps 746 mmHg 68%
    03:00 +3°C° 0 mm 3 mps 745 mmHg 69%
    04:00 +4°C° 0 mm 3 mps 745 mmHg 72%
    05:00 +4°C° 0 mm 3 mps 745 mmHg 75%
    06:00 +4°C° 0 mm 4 mps 745 mmHg 78%
    07:00 +5°C° 0 mm 4 mps 745 mmHg 74%
    08:00 +5°C° 0 mm 5 mps 745 mmHg 69%
    09:00 +5°C° 0 mm 6 mps 744 mmHg 65%
    10:00 +7°C° 0 mm 6 mps 744 mmHg 63%
    11:00 +7°C° 0 mm 6 mps 744 mmHg 60%
    12:00 +8°C° 0 mm 6 mps 743 mmHg 58%
    13:00 +8°C° 0 mm 6 mps 743 mmHg 60%
    14:00 +8°C° 0 mm 6 mps 742 mmHg 62%
    15:00 +8°C° 0 mm 6 mps 742 mmHg 64%
    16:00 +7°C° 0 mm 5 mps 742 mmHg 65%
    17:00 +7°C° 0 mm 5 mps 742 mmHg 67%
    18:00 +7°C° 0 mm 4 mps 742 mmHg 68%
    19:00 +8°C° 0 mm 3 mps 742 mmHg 68%
    20:00 +8°C° 0 mm 2 mps 742 mmHg 68%
    21:00 +9°C° 0 mm 1 mps 742 mmHg 68%
    22:00 +9°C° 0 mm 1 mps 741 mmHg 68%
    23:00 +8°C° 0 mm 2 mps 741 mmHg 69%
    Show more